Погода в Горицах

Россия / Тверская область     57°09′15″N   36°44′00″E
темп.,
°C
ветер,
м/с
пор.,
м/с
влажн.,
%
обл.,
%
осадки,
мм/ч
давл.,
гПа
погр.,
м
8 марта, пн
пн800:00−10зюз379069 0.0 992177
03:00−8зюз389484 0.3 993554
06:00−9зсз2396100 0.4 99492
09:00−10ссз489294 0.5 997416
12:00−8ссз4884100 0.1 1001813
15:00−8ссз5782100 0.2 1004902
18:00−10ссз3890100 0.1 1007513
21:00−13ссз3994100 0.1 1010343
9 марта, вт
вт900:00−14ссз389592 0.0 1012317
03:00−17ссз259892 0.1 1014123
06:00−20ссз259818 0.0 1015134
09:00−19с369325 0.0 1017269
12:00−16ссз348480 0.0 1018474
15:00−14ссз358179 0.0 1019610
18:00−17с249298 0.0 1020105
21:00−21с239763 0.0 102381
10 марта, ср
ср1000:00−23ссв23970 0.0 102583
03:00−24с22970 0.0 102744
06:00−26ссв22970 0.0 102845
09:00−23ссв13890 0.0 1029186
12:00−16св23700 0.0 1029411
15:00−12с12650 0.0 1029602
18:00−16сз12830 0.0 102920
21:00−19зсз12880 0.0 103020
11 марта, чт
чт1100:00−20зсз12904 0.0 103020
03:00−20зсз129116 0.0 103120
06:00−21з129329 0.0 103120
09:00−17зюз128732 0.0 1031118
12:00−11юз23751 0.0 1030415
15:00−9ююз24741 0.0 1029605
18:00−12ю22860 0.0 102822
21:00−15ю36920 0.0 1027125
12 марта, пт
пт1200:00−17ю39910 0.0 1026232
03:00−18ююв39900 0.0 1025252
06:00−19ююв39920 0.0 1023262
09:00−16ююв5109230 0.0 1020337
12:00−10юв6128399 0.0 1017502
15:00−7ююв71478100 0.0 1013924
18:00−7ююв71591100 0.8 10101153
21:00−7ююв71592100 1.6 10081175